Regional Weather Roundup
Issued by NWS Green Bay, WI

Home | Current Version | Previous Version | Graphics & Text | Print | Product List | Glossary Off
Versions: 1 2 3 4 5 6 7 8 9 10 11 12 13 14 15 16 17 18 19 20 21 22 23 24 25 26 27 28 29 30 31 32 33 34 35 36 37 38 39 40 41 42 43 44 45 46 47 48 49 50

000
ASUS43 KGRB 010900
RWRGRB

NORTH-CENTRAL AND NORTHEAST WISCONSIN REGIONAL WEATHER ROUNDUP
NATIONAL WEATHER SERVICE GREEN BAY WI
300 AM CST WED MAR 01 2017

WIZ005-009-010>012-018-019-011000-
NORTH CENTRAL WISCONSIN

CITY           SKY/WX    TMP DP  RH WIND       PRES   REMARKS
IRONWOOD       FLURRIES  25  22  88 NE13G18   29.72F
MANITOWISH WTR NOT AVBL
ARBOR VITAE    NOT AVBL
EAGLE RIVER    NOT AVBL
LAND O LAKES   NOT AVBL
RHINELANDER    CLOUDY    27  24  89 NE6       29.62S
PHILLIPS       NOT AVBL
ANTIGO         NOT AVBL
TOMAHAWK       NOT AVBL
MERRILL        NOT AVBL
$$

WIZ013-073-011000-
NORTHEAST WISCONSIN

CITY           SKY/WX    TMP DP  RH WIND       PRES   REMARKS
IRON MOUNTAIN  CLOUDY    29  22  75 N16G24    29.62F
MARINETTE      LGT SNOW  32  31  96 N17       29.56F FOG
$$

WIZ017-030-035>037-045-011000-
CENTRAL WISCONSIN

CITY           SKY/WX    TMP DP  RH WIND       PRES   REMARKS
MEDFORD        NOT AVBL
WAUSAU         CLOUDY    31  28  89 N9        29.57F
MOSINEE        NOT AVBL
MARSHFIELD     CLOUDY    32  29  88 NE12      29.55F
WISC RAPIDS    FLURRIES  34  33  96 N9        29.58F
STEVENS POINT  NOT AVBL
WAUPACA        NOT AVBL
SHAWANO        LGT SNOW  34  32  91 N14       29.57F
CLINTONVILLE   NOT AVBL
WAUTOMA        LGT RAIN  35  33  92 N10       29.54F
$$

WIZ038-039-048-051-011000-
FOX VALLEY

CITY           SKY/WX    TMP DP  RH WIND       PRES   REMARKS
NWS GREEN BAY  MIX PCPN  35  35 100 N15       29.54F
APPLETON       NOT AVBL
OSHKOSH        MIX PCPN  36  33  89 N13       29.52F
FOND DU LAC    CLOUDY    36  33  89 N13       29.53F
$$

WIZ022-050-052-011000-
EAST CENTRAL WISCONSIN

CITY           SKY/WX    TMP DP  RH WIND       PRES   REMARKS
EPHRAIM        NOT AVBL
WASHINGTON ISL NOT AVBL
STURGEON BAY   MIX PCPN  32  31  96 N20G25    29.53F
MANITOWOC      NOT AVBL
SHEBOYGAN      LGT RAIN  36  34  92 N13G20    29.49F
$$

LMZ563-521-522-541>543-011000-
LAKESHORE

STATION/POSITION TIME  TEMP    WIND        PRES    VSBY  WAVE
                       AIR SEA DIR/SP/G                  HT/PER
                 (UTC) (F)     (DEG/KT/KT) (MB)    (MI)  (FT/S)
SHEBOYGAN LKSHOR 0800   37     340/ 19/ 23  999.6R
KEWAUNEE LKSHORE 0830   35     350/ 10/ 17 1000.1S
NORTHPORT PIER   0840   32     340/ 18/ 23 1002.0R
CHAMBERS ISLAND  0840   32     340/ 18/ 22 1001.4S
MENOMINEE LKSHOR 0830   32     340/ 18/ 21 1001.0R
$$



USA.gov is the U.S. government's official web portal to all federal, state and local government web resources and services.